Regional Weather Roundup
Issued by NWS

Home | Current Version | Previous Version | Graphics & Text | Print | Product List | Glossary On
Versions: 1 2 3 4 5 6 7 8 9 10 11 12 13 14 15 16 17 18 19 20 21 22 23 24 25 26 27 28 29 30 31 32 33 34 35 36 37 38 39 40 41 42 43 44 45 46 47 48 49 50
000
ASUS45 KPSR 200910
RWRAZ

ARIZONA REGIONAL HOURLY WEATHER ROUNDUP
NATIONAL WEATHER SERVICE PHOENIX AZ
200 AM MST SAT SEP 20 2014

NOTE: FAIR INDICATES FEW OR NO CLOUDS BELOW 12,000 FEET WITH NO
SIGNIFICANT WEATHER AND/OR OBSTRUCTIONS TO VISIBILITY.

AZZ001>003-036-201000-
NORTHWEST ARIZONA

CITY           SKY/WX    TMP DP  RH WIND       PRES   REMARKS
BULLHEAD CITY  PTCLDY    84  50  30 CALM      29.81S
KINGMAN        CLEAR     67  46  47 S3        30.00R
$$

AZZ004>008-015-016-018-201000-
NORTH CENTRAL ARIZONA

CITY           SKY/WX    TMP DP  RH WIND       PRES   REMARKS
GRAND CANYON   CLEAR     49  48  97 CALM      30.21F
PRESCOTT       CLEAR     63  49  60 SW5       30.11S
FLAGSTAFF        N/A     50  48  93 MISG      30.23F
PAYSON         PTCLDY    64  59  82 CALM      30.13S
PAGE           CLEAR     73  51  46 SW3       30.03R
$$

AZZ009>014-017-201000-
NORTHEAST ARIZONA

CITY           SKY/WX    TMP DP  RH WIND       PRES   REMARKS
WINSLOW        CLEAR     64  56  75 CALM      30.08S
SAINT JOHNS    CLEAR     65  56  72 SW6       30.11F
WINDOW ROCK    CLEAR     51  43  74 CALM      30.20S
SHOW LOW       CLEAR     59  55  88 S9        30.20F
$$

AZZ023-201000-
GREATER PHOENIX AREA

CITY           SKY/WX    TMP DP  RH WIND       PRES   REMARKS
PHOENIX        CLEAR     85  62  46 CALM      29.81S
BUCKEYE          N/A     81  59  47 SW5       29.82S
LUKE AFB       CLEAR     83  63  50 S6        29.81S
DEER VALLEY    CLEAR     79  63  57 CALM      29.83S
SCOTTSDALE     CLEAR     82  63  52 CALM      29.85S
MESA-GATEWAY   MOCLDY   N/A N/A N/A SE7       29.86S
$$

AZZ027-028-201000-
SOUTHWEST MARICOPA COUNTY AND PINAL COUNTY

CITY           SKY/WX    TMP DP  RH WIND       PRES   REMARKS
CASA GRANDE    CLEAR     81  66  61 CALM      29.86S
$$

AZZ503-504-507>509-201000-
SOUTHEAST ARIZONA

CITY           SKY/WX    TMP DP  RH WIND       PRES   REMARKS
TUCSON         CLEAR     75  69  81 SE7       29.96S
DAVIS-MONTHAN  CLEAR     74  68  81 S5        29.94S
NOGALES        PTCLDY    66  63  90 E3        30.03S
SIERRA VISTA   PTCLDY    68  63  84 SW7       30.08S
DOUGLAS        CLEAR     67  64  90 CALM      30.04S
SAFFORD        CLEAR     72  68  87 SE5       29.95S
$$

AZZ020-021-025-026-031-201000-
SOUTHWEST ARIZONA

CITY           SKY/WX    TMP DP  RH WIND       PRES   REMARKS
YUMA           CLEAR     85  68  56 S5        29.77S
$$

CAZ031-033-041-043-047-048-061-201000-
SOUTHERN CALIFORNIA

CITY           SKY/WX    TMP DP  RH WIND       PRES   REMARKS
DOWNTOWN L.A.  CLEAR     67  62  84 CALM      29.89S
L.A. AIRPORT   CLEAR     66  62  86 SE3       29.90S
SAN DIEGO      CLOUDY    71  61  70 CALM      29.92S
BURBANK        CLEAR     67  60  78 E6        29.90R
ONTARIO        CLEAR     67  60  78 NW3       29.91S
RIVERSIDE      CLEAR     67  61  81 W3        29.92S
PALM SPRINGS   CLEAR     81  58  45 NW9       29.81S
EL CENTRO NAS  CLEAR     82  56  40 W6        29.75S
IMPERIAL       CLEAR     80  59  48 W3        29.75S
BLYTHE         CLEAR     84  51  31 SW6       29.77S
NEEDLES        CLEAR     83  48  29 W5        29.81S
$$

NVZ020-UTZ003-201000-
SOUTHERN NEVADA-UTAH

CITY           SKY/WX    TMP DP  RH WIND       PRES   REMARKS
LAS VEGAS      PTCLDY    81  38  21 SW7       29.86S
SALT LAKE CITY CLEAR     62  51  67 S5        30.11R
$$

NMZ009-TXZ055-201000-
NEW MEXICO-WEST TEXAS

CITY           SKY/WX    TMP DP  RH WIND       PRES   REMARKS
ALBUQUERQUE    CLEAR     67  57  70 CALM      30.12S
EL PASO        PTCLDY    70  65  84 NE3       30.00S
$$


........................KEY........................
SKY/WX - SKY CONDITION/WEATHER
TMP    - TEMPERATURE IN FAHRENHEIT
DP     - DEW POINT IN FAHRENHEIT
RH     - RELATIVE HUMIDITY IN PERCENT
WIND   - DIRECTION AND SPEED IN MILES PER HOUR (MPH)
VRB    - VARIABLE WIND DIRECTION
PRES   - MEAN SEA LEVEL PRESSURE IN INCHES OF MERCURY
         F - FALLING PRESSURE   R - RISING PRESSURE
         S - STEADY PRESSURE
VSB    - VISIBILITY IN MILES
HX     - HEAT INDEX IN FAHRENHEIT
WCI    - WIND CHILL INDEX IN FAHRENHEIT
TC     - TEMPERATURE IN CELSIUS WHICH IS ALSO KNOWN AS
         TEMPERATURE IN CENTIGRADE
AFB    - AIR FORCE BASE
         LUKE AFB IS LUKE AIR FORCE BASE
         DAVIS-MONTHAN IS DAVIS-MONTHAN AIR FORCE BASE
NAS    - NAVAL AIR STATION
         EL CENTRO NAS IS EL CENTRO NAVAL AIR STATION
N/A    - NOT AVAILABLE



USA.gov is the U.S. government's official web portal to all federal, state and local government web resources and services.